www.pogodaiklimat.ru
ПОГОДА в Мидлбери
Время
и дата
07:15 15.05
07:35 15.05
07:55 15.05
08:15 15.05
08:35 15.05
08:55 15.05
09:15 15.05
09:35 15.05
09:55 15.05
10:15 15.05
10:35 15.05
10:55 15.05
11:15 15.05
11:35 15.05
11:55 15.05
12:15 15.05
12:35 15.05
12:55 15.05
13:15 15.05
13:35 15.05
13:55 15.05
14:15 15.05
14:35 15.05
14:55 15.05
15:15 15.05
15:35 15.05
15:55 15.05
16:15 15.05
16:35 15.05
16:55 15.05
17:15 15.05
17:35 15.05
17:55 15.05
18:15 15.05
18:35 15.05
18:55 15.05
19:15 15.05
19:35 15.05
19:55 15.05
20:15 15.05
20:35 15.05
20:55 15.05
21:15 15.05
21:35 15.05
21:55 15.05
22:15 15.05
22:35 15.05
22:55 15.05
Ветер
(напр.,м/с)
Видим. Явления Облачность Т
(С)
Тd
(С)
f
(%)
Тe
(С)
Тes
(С)
Комфортность P
(гПа)
Po
(гПа)
Тmin
(С)
Tmax
(С)
R
(мм)
R24
(мм)
S
(см)
ЮЗ 2 16 км 5/5 1950 м +16.9 +12.3 74 +17 +19 994.0
ЮЗ 2 16 км 8/5 750 m
[Ac]
+17.0 +12.5 75 +17 +18 994.3
З 2 16 км 8/8 690 m
[Ac]
+17.0 +12.7 76 +17 +18 994.3
З 3 16 км 8/8 1650 m
[Ac]
+17.1 +12.5 74 +17 +18 994.3
ЮЗ 2 16 км 8/8 480 м +17.1 +12.9 76 +17 +19 994.3
ЮЗ 2 16 км 10/8 480 m
[Ac]
+17.0 +13.1 78 +17 +18 994.0
З 2 16 км слабая морось 10/10 540 m
[St]
+17.1 +13.9 81 +17 +17 994.0
штиль 0 16 км слабый дождь 10/10 450 m
[Ns]
+17.0 +14.5 85 +17 +17 994.0
штиль 0 16 км слабый дождь 10/10 510 m
[Ns]
+17.2 +14.2 83 +17 +17 994.0
З 2 16 км морось 10/10 450 m
[St]
+16.9 +14.3 85 +17 +17 994.3
штиль 0 16 км слабый дождь 10/10 450 m
[Ns]
+16.6 +14.1 85 +16 +16 994.3
штиль 0 16 км слабый дождь 10/10 450 m
[Ns]
+16.5 +14.0 85 +16 +16 994.3
ЮЗ 2 16 км слабый дождь 10/10 450 m
[Ns]
+16.5 +14.0 85 +17 +17 994.3
Ю 2 16 км слабый дождь 10/10 570 m
[Ns]
+16.2 +13.7 85 +16 +16 994.3
Ю 2 16 км слабый дождь 10/8 300 m
[Ac Ns]
+16.4 +13.9 85 +17 +18 994.3
Ю 2 11 км дождь 10/10 300 m
[Ns]
+16.0 +13.5 85 +16 +16 994.3
Ю 4 11 км дождь 10/10 240 m
[Ns]
+15.9 +13.4 85 +15 +15 994.3
Ю 3 16 км слабый дождь 10/10 240 m
[Ns]
+16.1 +13.6 85 +16 +16 994.0 +15.8 +17.3 3.3
Ю 2 16 км слабый дождь 10/10 1470 m
[Ns]
+16.4 +13.9 85 +17 +17 994.0
Ю 2 16 км дождь 10/10 1260 m
[Ns]
+16.1 +13.6 85 +16 +16 994.0
Ю 2 16 км слабый дождь 10/10 1260 m
[Ns]
+16.0 +13.5 85 +16 +16 993.6
Ю 2 16 км слабый дождь 10/10 1440 m
[Ns]
+16.1 +13.6 85 +16 +16 993.6
Ю 2 16 км слабый дождь 10/10 1080 m
[Ns]
+16.5 +14.0 85 +17 +17 993.6
Ю 2 16 км морось 10/10 1110 m
[St]
+16.6 +14.1 85 +17 +17 993.6
штиль 0 16 км слабый дождь 10/10 1020 m
[Ns]
+16.7 +14.2 85 +17 +17 993.3
ЮВ 2 16 км слабая морось 10/10 1020 m
[St]
+17.4 +14.7 84 +18 +18 993.3
Ю 3 16 км 8/8 510 м +17.7 +14.3 80 +18 +20 993.3 0.8
Ю 4 16 км 5/5 570 м +17.8 +13.6 76 +18 +20 993.0
Ю 2 16 км 8/8 630 м +18.0 +13.1 73 +19 +20 993.0
Ю 2 16 км 5/5 570 м +17.6 +13.9 79 +18 +21 993.0
штиль 0 16 км слабый дождь ясно +17.2 +14.0 81 +17 +22 992.7
штиль 0 16 км ясно +17.0 +14.5 85 +17 +21 992.7
штиль 0 16 км 8/0 3300 m
[Ac]
+16.6 +14.1 85 +16 +18 993.0
штиль 0 16 км 10/0 3000 m
[Ac]
+16.5 +13.9 85 +16 +17 993.0
ЮВ 2 16 км 10/0 3000 m
[Ac]
+16.1 +13.5 85 +16 +16 993.3
штиль 0 16 км слабая морось 10/0 3000 m
[Ac]
+15.8 +13.3 85 +16 +16 993.3 +15.8 +18.0 0.8
штиль 0 16 км 10/0 2700 m
[Ac]
+15.3 +12.8 85 +15 +15 993.3
штиль 0 16 км 10/0 3000 m
[Ac]
+15.0 +12.5 85 +15 +15 993.3
штиль 0 16 км морось 10/8 1140 m
[Ac St]
+14.7 +12.2 85 +14 +14 993.6
штиль 0 16 км морось 10/10 1020 m
[St]
+14.5 +12.1 86 +14 +14 993.6
штиль 0 16 км морось 10/10 900 m
[St]
+14.6 +12.1 85 +14 +14 993.6
ЮВ 2 16 км морось 10/10 840 m
[St]
+14.7 +12.2 85 +14 +14 993.6
штиль 0 16 км дождь 10/10 840 m
[Ns]
+14.6 +12.1 85 +14 +14 993.6
В 2 16 км морось 10/10 1650 m
[St]
+14.3 +11.9 85 +14 +14 993.6
штиль 0 16 км 10/5 1650 m
[Ac]
+14.1 +11.7 85 +14 +14 993.0 0.3
штиль 0 16 км 10/0 2400 m
[Ac]
+14.0 +11.5 85 +14 +14 992.7
штиль 0 16 км 10/0 2400 m
[Ac]
+13.7 +11.3 85 +13 +13 992.7
штиль 0 16 км 10/0 2400 m
[Ac]
+13.6 +11.2 85 +13 +13 992.7
Местоположение метеостанции Middlebury State Airport: широта 43.9848 долгота -73.0959 высота над уровнем моря 149 м.
В архиве по умолчанию представлена погода в Мидлбери за последние 1-2 суток. Обновление информации о фактической погоде в базе происходит ежечасно! Архивные данные за месяц целиком и за предыдущие месяцы Вы можете получить, выбрав интересующий диапазон дат из раскрывающегося списка и нажав кнопку "Ввод!".
Внимание! Архив погоды МЕТАР в базе сайта по станциям, не включенным в климатический монитор, хранится не более 60 дней. Нет смысла пытаться выбрать более раннюю дату.
*Определитесь, кто Вы:
Внимание! Время в таблицах - местное (без учета летнего времени). Для получения всемирного времени необходимо вычесть поправку, которая равна -5 ч.
Смотрите также архив погоды в соседних городах и на ближайших метеорологических станциях:
Партнеры нашего сайта:      
Пояснения к столбцам:
  • Ветер - указаны скорость ветра в м/с - средняя за 10 мин, порывы в срок и между сроками (в фигурных скобках) и направление, откуда дует ветер: С - северный,
  • СВ - северо-восточный, В - восточный, ЮВ - юго-восточный, Ю - южный, ЮЗ - юго-западный, З - западный, СЗ - северо-западный.
  • Видимость - горизонтальная дальность видимости в метрах или километрах. При видимости от 1 до 10 км при отсутствии осадков обычно наблюдается дымка, при ухудшении видимости до 1 км и менее - туман. В сухую погоду видимость может ухудшаться дымом, пылью или мглою.
  • Явления - указаны атмосферные явления, наблюдавшиеся в срок или в последний час перед сроком; фигурными скобками обозначены явления, наблюдавшиеся между сроками (за 1-3 часа до срока); квадратными скобками обозначены град или гололедные отложения с указанием их диаметра в мм.
  • Облачность - указаны через наклонную черту общая и нижняя облачность в баллах и высота нижней границы облаков в метрах; квадратными скобками обозначены формы облаков: Ci - перистые, Cs - перисто-слоистые, Cc - перисто-кучевые, Ac - высококучевые, As - высокослоистые, Sc - слоисто-кучевые, Ns - слоисто-дождевые, Cu - кучевые, Cb - кучево-дождевые. Подробнее классификацию облаков см. в Атласе облаков (PDF).
  • T - Температура воздуха - температура, измеренная на высоте 2 м над землей.
  • Td - Температура точки росы - температура, при понижении до которой содержащийся в воздухе водяной пар достигнет насыщения.
  • f - Относительная влажность воздуха - влажноcть воздуха, измеренная на высоте 2 м над землей.
  • Te - Эффективная температура - температура, которую ощущает одетый по сезону человек в тени. Характеристика душности погоды. При расчете учитывается влияние влажности воздуха и скорости ветра на теплоощущения человека.
  • Tes - Эффективная температура на солнце - температура, которую ощущает человек, с поправкой на солнечный нагрев. Характеристика знойности погоды. Зависит от высоты солнца над горизонтом, облачности и скорости ветра. Ночью, в пасмурную погоду, а также при ветре 12 м/с и более поправка равна нулю.
  • P - Атмосферное давление - приведенное к уровню моря атмосферное давление.
  • Po - Атмосферное давление - измеренное на уровне метеостанции атмосферное давление.
  • Tmin - Минимальная температура - минимум температуры воздуха на высоте 2 м над землей.
  • Tmax - Максимальная температура - максимум температуры воздуха на высоте 2 м над землей.
  • R - Количество осадков - Количество выпавших осадков за период времени, мм. При наведении курсора мыши на число - период времени, за который выпало указанное количество осадков.
  • R24 - Количество осадков - Количество выпавших осадков за 24 часа, мм.
  • S - Снежный покров - Высота снежного покрова, см. При наведении курсора мыши на число - состояние снежного покрова и степень покрытия местности в баллах.